Tracking 18624 objects as of 27-April-2017
HD Live streaming from Space Station
objects crossing your sky now

ESSA 1 (OT-3)

Track ESSA 1 (OT-3) now!
10-day predictions
ESSA 1 (OT-3) is classified as:


NORAD ID: 1982
Int'l Code: 1966-008A
Perigee: 685.7 km
Apogee: 800.7 km
Inclination: 97.8 °
Period: 99.5 minutes
Semi major axis: 7114 km
RCS: 0.7257 m2 (medium)
Launch date: February 3, 1966
Source: United States (US)
Launch site: AIR FORCE EASTERN TEST RANGE (AFETR)
Your satellite tracking list
Your tracking list is empty





NASA's NSSDC Master Catalog

Two Line Element Set (TLE):
1  1982U 66008A   17115.65847457 +.00000046 +00000-0 +23642-4 0  9992
2  1982 097.8262 332.6397 0080782 318.3603 041.1458 14.46817273674900
Source of the keplerian elements: AFSPC